N811TM PAFA-EDDS

Flight info

Callsign N811TM
Flight time N/A
Altitude 41000
Route DRRLL4 DRRLL DCT ROCES DCT TAYTA DCT 72N140W 77N130W 80N120W 81N110W 82N100W DCT LT/M087F410 DCT 82N050W 81N040W 80N030W 78N020W 74N010W 66N000E/N0506F410 DCT APTEK DCT KARLI DCT AMADA DCT GMH Q603 TESGA L603 BOMBI DCT KRH KRH1W
Aircraft GLF6/M-SBDE2E3FGHIJ4J5M1RWXY/LB1D1

Departure

Time 2026-04-19 04:48
Airport Fairbanks International Airport (PAFA)

Arrival

Time N/A
Airport Stuttgart Airport (EDDS)
Time Latitude Longitude Altitude Speed Heading
2026-04-19 04:35 64.82672 -147.84836 434 ft 0 kts 218°
2026-04-19 04:46 64.82655 -147.84856 434 ft 6 kts 186°
2026-04-19 04:46 64.82642 -147.84697 434 ft 15 kts 81°
2026-04-19 04:47 64.82640 -147.84520 434 ft 8 kts 58°
2026-04-19 04:47 64.82724 -147.84390 434 ft 20 kts 32°
2026-04-19 04:47 64.82838 -147.84177 434 ft 15 kts 51°
2026-04-19 04:47 64.82797 -147.83958 433 ft 14 kts 163°
2026-04-19 04:48 64.82630 -147.84238 434 ft 67 kts 217°
2026-04-19 04:48 64.82026 -147.85349 437 ft 149 kts 218°
2026-04-19 04:48 64.81162 -147.87041 1083 ft 172 kts 218°
2026-04-19 04:48 64.80172 -147.88985 1812 ft 207 kts 218°
2026-04-19 04:49 64.78992 -147.91295 2431 ft 218 kts 224°
2026-04-19 04:49 64.78453 -147.94171 3012 ft 193 kts 272°
2026-04-19 04:49 64.79037 -147.97070 3755 ft 215 kts 317°
2026-04-19 04:49 64.80466 -147.98451 4492 ft 243 kts 351°
2026-04-19 04:50 64.82233 -147.98523 5199 ft 268 kts 359°
2026-04-19 04:50 64.84132 -147.98248 5875 ft 284 kts
2026-04-19 04:50 64.86117 -147.97781 6536 ft 290 kts
2026-04-19 04:50 64.88084 -147.97224 7180 ft 290 kts
2026-04-19 04:51 64.90078 -147.96609 7840 ft 291 kts
2026-04-19 04:51 64.92092 -147.95956 8503 ft 295 kts
2026-04-19 04:51 64.94120 -147.95285 9173 ft 299 kts
2026-04-19 04:51 64.96161 -147.94452 9840 ft 305 kts 11°
2026-04-19 04:52 64.98216 -147.93008 10528 ft 322 kts 13°
2026-04-19 04:52 65.00436 -147.91409 11245 ft 343 kts 13°
2026-04-19 04:52 65.02735 -147.89740 11953 ft 361 kts 14°
2026-04-19 04:52 65.05179 -147.87955 12661 ft 378 kts 14°
2026-04-19 04:53 65.07752 -147.86069 13375 ft 393 kts 15°
2026-04-19 04:53 65.10371 -147.84143 14077 ft 402 kts 15°
2026-04-19 04:53 65.13037 -147.82176 14825 ft 409 kts 15°
2026-04-19 04:53 65.15720 -147.80193 16320 ft 404 kts 15°
2026-04-19 04:54 65.18420 -147.78195 17224 ft 413 kts 14°
2026-04-19 04:54 65.21146 -147.76175 18137 ft 419 kts 14°
2026-04-19 04:54 65.23943 -147.74098 19154 ft 424 kts 14°
2026-04-19 04:54 65.26754 -147.72006 20045 ft 430 kts 14°
2026-04-19 04:55 65.29578 -147.69894 21018 ft 432 kts 13°
2026-04-19 04:55 65.32460 -147.67741 21901 ft 437 kts 13°
2026-04-19 04:55 65.35356 -147.65572 22696 ft 442 kts 12°
2026-04-19 04:55 65.38257 -147.63391 23540 ft 445 kts 11°
2026-04-19 04:56 65.41180 -147.61191 24356 ft 448 kts 11°
2026-04-19 04:56 65.44151 -147.58954 24968 ft 455 kts 11°
2026-04-19 04:56 65.47155 -147.56677 25655 ft 456 kts 10°
2026-04-19 04:56 65.50180 -147.54390 26288 ft 460 kts 10°
2026-04-19 04:57 65.53233 -147.52068 26832 ft 466 kts 10°
2026-04-19 04:57 65.56266 -147.49757 27435 ft 468 kts 10°
2026-04-19 04:57 65.59247 -147.47481 27994 ft 471 kts 10°
2026-04-19 04:57 65.62363 -147.45097 28449 ft 476 kts 10°
2026-04-19 04:58 65.65515 -147.42674 28966 ft 479 kts
2026-04-19 04:58 65.68684 -147.40233 29542 ft 481 kts
2026-04-19 04:58 65.71886 -147.37767 29990 ft 486 kts